Location: Kenockee Observatory
(43.0173°N, 82.7297°W)
Time: 22:17:55
(UTC-04:00)

Daily predictions for brighter satellites

Satellite Brightness Start Highest point End
(mag) Time Altitude Azimuth Time Altitude Azimuth Time Altitude Azimuth
ERS-1 Rocket 4.4 20:30:16 10° ESE 20:33:49 20° ENE 20:37:24 10° NNE
Meteor 1-12 Rocket 4.5 20:30:39 10° S 20:36:13 53° E 20:41:55 10° NNE
Cosmos 1346 Rocket 3.1 20:32:23 10° NNW 20:36:21 74° W 20:40:20 10° S
Helios 1B rocket 2.6 20:32:46 10° N 20:36:54 79° WNW 20:41:00 10° SSW
METEOR-M 4.4 20:32:50 10° S 20:38:11 77° WSW 20:43:34 10° NNW
Cosmos 2150 Rocket 4.2 20:39:48 10° NNW 20:44:52 53° ENE 20:49:55 10° SE
Tiangong 1 1.3 20:43:43 10° W 20:46:49 61° SSW 20:49:40 11° ESE
Cosmos 1697 Rocket 2.9 20:41:32 10° S 20:46:56 48° ESE 20:52:22 10° NE
Resurs 1-3 3.9 20:43:47 10° S 20:48:09 72° WSW 20:52:33 10° NNW
Cosmos 2123 Rocket 4.1 20:42:14 10° N 20:48:26 85° W 20:54:37 10° S
Cosmos 1743 4.1 20:47:10 10° SE 20:50:05 20° E 20:53:00 10° NE
Cosmos 1898 Rocket 3.5 20:49:54 10° NNW 20:55:13 69° ENE 21:00:26 10° SSE
SL-16 R/B 3.8 21:00:03 13° ESE 21:01:26 14° E 21:04:08 10° ENE
Cosmos 468 Rocket 3.9 21:00:27 10° S 21:05:30 66° ESE 21:10:37 10° NNE
BREEZE-M DEB (TANK) 4.5 20:47:09 10° SW 21:06:48 62° SSE 21:11:56 10° ENE
BREEZE-M DEB (TANK) 4.2 21:03:52 10° SW 21:07:56 80° SSE 21:23:10 10° ENE
Cosmos 841 Rocket 4.2 21:05:26 10° SSE 21:09:58 31° E 21:14:30 10° NE
Cosmos 1980 Rocket 2.4 21:06:00 10° S 21:11:24 47° ESE 21:16:51 10° NE
RESURS DK-1 2.3 21:10:28 10° NNW 21:14:38 84° ENE 21:18:10 14° SSE
Resurs 01 Rocket 3.8 21:13:45 10° SSW 21:17:32 27° W 21:21:20 10° NW
H-2A R/B 3.2 21:15:06 10° S 21:18:59 65° W 21:22:56 10° NNW
Cosmos 1814 Rocket 4.0 21:14:07 10° SSW 21:19:26 75° ESE 21:24:44 10° NNE
FENGYUN 3A 4.1 21:15:47 10° S 21:21:05 64° W 21:26:25 10° NNW
Cosmos 1656 4.1 21:16:29 10° SW 21:22:03 66° WNW 21:27:36 10° NNE
Cosmos 1842 4.4 21:23:47 10° NNE 21:27:05 25° ENE 21:27:49 24° E
Cosmos 1726 Rocket 4.2 21:24:43 19° SE 21:27:14 34° E 21:31:14 10° NNE
Cosmos 1666 3.7 21:29:44 26° E 21:29:51 26° E 21:33:02 10° NNE
YAOGAN 6 4.3 21:30:59 18° ENE 21:31:09 18° ENE 21:33:45 10° NNE
Cosmos 2263 Rocket 3.6 21:30:08 10° N 21:34:24 22° NE 21:36:35 17° E
Iridium 4 Rocket 3.8 21:32:24 10° N 21:37:15 59° W 21:41:40 10° SSW
Lacrosse 5 2.6 21:33:39 10° WNW 21:38:31 47° SW 21:41:56 18° SSE
Cosmos 1802 Rocket 4.0 21:33:47 10° S 21:40:07 69° E 21:46:32 10° NNE
Cosmos 1500 4.1 21:37:26 10° SSW 21:41:04 49° W 21:44:47 10° N
Cosmos 1825 Rocket 3.4 21:36:57 10° N 21:41:23 80° E 21:44:13 22° SSE
Cosmos 2016 Rocket 3.9 21:38:52 10° S 21:44:53 62° E 21:51:01 10° NNE
Cosmos 1340 2.5 21:42:05 10° N 21:45:54 83° E 21:47:32 33° SSE
Cosmos 2322 Rocket 2.7 21:43:34 22° SSE 21:46:15 35° ESE 21:51:17 10° NE
SJ-11-01 4.3 21:43:53 18° S 21:47:25 83° WSW 21:52:08 10° NNW
SPOT 5 3.3 21:47:47 33° ESE 21:49:24 44° ENE 21:53:53 10° N
SWAS 4.5 21:47:04 10° S 21:51:16 54° ESE 21:55:31 10° NE
Envisat 2.9 21:49:39 26° SSE 21:52:35 77° ENE 21:57:40 10° N
Cosmos 1937 Rocket 4.3 21:48:27 10° NNW 21:53:34 51° WSW 21:58:05 13° S
Cosmos 1953 Rocket 3.5 21:49:13 10° N 21:53:42 79° E 21:55:42 33° SSE
MetOp-A 4.5 21:52:04 33° ESE 21:53:59 47° ENE 21:59:07 10° N
Cosmos 2228 3.7 21:55:49 35° E 21:55:49 35° E 21:59:21 10° NNE
H-2A R/B 2.0 21:55:01 45° ESE 21:55:54 56° ENE 22:00:00 10° N
Cosmos 2297 Rocket 4.4 21:52:01 10° NW 21:56:11 22° W 22:00:22 10° SSW
Cosmos 2173 Rocket 4.1 21:50:20 10° S 21:56:42 80° W 22:03:03 10° N
USA 186 4.3 21:54:52 10° SW 21:56:53 17° W 21:58:50 10° NW
Meteor 2-9 Rocket 4.1 21:57:29 26° SSE 22:00:26 57° E 22:05:43 10° NNE
Cosmos 990 Rocket 4.4 21:55:55 10° NNW 22:01:06 59° WSW 22:04:27 21° S
Terra 3.8 22:03:43 14° ENE 22:03:43 14° ENE 22:06:00 10° NNE
CZ-4 DEB 4.0 22:03:21 28° SW 22:04:27 37° W 22:07:25 10° NNW
Meteor 1-15 Rocket 4.4 22:02:12 29° SSE 22:05:08 57° E 22:10:51 10° NNE
Cosmos 2360 4.2 22:00:09 10° SSW 22:05:53 90° WNW 22:11:39 10° NNE
Cosmos 2227 4.5 22:03:48 10° NNW 22:09:30 67° WSW 22:12:24 29° S
Cosmos 1758 Rocket 3.6 22:07:35 10° N 22:11:57 77° W 22:13:13 45° S
ERS-1 Rocket 3.6 22:08:47 20° S 22:12:11 54° W 22:17:08 10° NNW
Cosmos 1864 Rocket 4.3 22:10:22 28° S 22:13:40 68° E 22:19:45 10° NNE
Cosmos 405 Rocket 4.0 22:13:32 10° N 22:15:53 29° NE 22:15:53 29° NE
BREEZE-M DEB (TANK) 2.1 22:15:03 10° WNW 22:17:24 75° SW 22:17:24 75° SW
Tiangong 1 3.7 22:20:45 10° WSW 22:21:38 14° WSW 22:21:38 14° WSW
BREEZE-M DEB (TANK) 4.4 22:09:32 10° SW 22:23:56 60° SSE 22:25:52 40° E
Cosmos 1939 Rocket 4.1 22:23:17 27° SSW 22:24:57 40° W 22:28:54 10° NNW
H-2A R/B 3.2 22:25:29 27° ENE 22:25:29 27° ENE 22:29:10 10° N
Meteor 2-17 Rocket 4.5 22:24:21 50° SE 22:25:19 56° E 22:31:12 10° NNE
deb Chang Zheng 4 3.6 22:21:01 10° NNE 22:25:30 80° WNW 22:26:47 46° SSW
Cosmos 1763 Rocket 4.3 22:21:23 10° SW 22:26:18 48° WNW 22:31:13 10° N
Tsikada Rocket 4.0 22:21:29 10° N 22:27:57 88° E 22:30:24 41° S
SL-08 RB Rocket 4.3 22:32:11 46° NE 22:32:11 46° NE 22:36:07 10° N
ARGOS 3.0 22:39:04 69° ESE 22:39:25 71° ENE 22:44:48 10° N
USA 215 4.1 22:37:03 28° ENE 22:39:49 42° NNE 22:45:52 10° NW
Cosmos 1816 Rocket 4.4 22:35:54 10° N 22:42:19 90° W 22:43:53 55° S
Cosmos 2058 Rocket 4.0 22:40:58 30° SW 22:42:45 47° WNW 22:47:07 10° N
Cosmos 1125 Rocket 3.7 22:38:22 10° NNW 22:43:31 61° WSW 22:44:17 54° SW
SPOT 1/Viking Rocket 3.4 22:44:10 81° SE 22:44:24 85° ENE 22:49:38 10° NNW
NOAA 11 4.0 22:44:17 75° SE 22:44:41 80° ENE 22:50:10 10° NNW
SL-16 R/B 2.1 22:41:43 29° SSW 22:44:44 84° WNW 22:50:27 10° NNE
Cosmos 1844 Rocket 4.4 22:41:26 10° N 22:45:19 19° NE 22:45:36 19° NE
Cosmos 1725 Rocket 4.2 22:42:59 24° SSW 22:46:49 67° W 22:53:05 10° N
MetOp-B 4.4 22:46:30 52° SSW 22:47:33 63° WSW 22:52:54 10° NNW
Cosmos 2098 Rocket 4.5 22:43:33 11° SSW 22:49:49 54° W 22:55:07 10° N
ASTEX 1 4.2 22:45:17 10° N 22:50:07 50° WNW 22:51:52 34° SW
Cosmos 1980 Rocket 4.1 22:50:43 10° WSW 22:55:36 29° NW 23:00:32 10° N
Cosmos 2360 Rocket 3.6 22:58:32 26° NE 22:58:32 26° NE 23:01:09 10° NE
Cosmos 540 Rocket 3.5 22:55:48 77° WNW 22:55:51 77° WNW 23:01:01 10° NNE
Cosmos 2233 Rocket 4.1 23:06:51 59° SW 23:08:01 73° W 23:14:17 10° N
Cosmos 2263 Rocket 2.5 23:13:17 10° NNW 23:18:16 61° W 23:18:16 61° W
Cosmos 371 Rocket 4.3 23:20:22 42° N 23:20:22 42° N 23:23:44 10° NNE
Cosmos 2322 Rocket 3.5 23:25:07 10° WSW 23:30:15 36° WNW 23:35:26 10° N
Terra 3.2 23:42:36 36° NNW 23:42:36 36° NNW 23:45:27 10° NNW
Meteor 1-24 Rocket 4.4 23:46:32 10° NNW 23:51:23 55° NW 23:51:23 55° NW
